星链-32624 (STARLINK-32624)

导读

STARLINK-32624是美国SpaceX星链星座的卫星,于2024年11月11日发射入轨,归属美国所有,属于星链低轨互联网星座的组成部分,承担全球卫星互联网组网任务,主要为全球偏远、网络基础设施匮乏区域提供高速互联网接入服务,该卫星延续星链标准化设计,依托一箭多星发射模式完成部署,进一步完善星链星座的全球覆盖能力。

基本信息
目录编号:
61926
目录名称:
STARLINK-32624
国际标识:
2024-207Q
轨道中心:
EARTH
卫星名称:
星链-32624
卫星全名:
星链-32624 (STARLINK-32624)
卫星状态:
在轨 (已飞行669 天)
发射日期:
2024-11-11 UTC
国别 :
美国 (US)
星等 :
--
该卫星已列入 空间交会检测服务 Space Conjunction Data Service (SCDS) ,当前飞行风险评估等级: 无高风险
轨道信息
数据来源 国际轨道数据 AOE轨道数据
星历时间 2026-09-11T13:30:38+0800
14小时前
查看轨道信息
2026-09-07T06:00:00+0800
4天前
查看轨道信息
半长轴 6861.063km 6861.06km
偏心率 0.0003463 0.0001444
轨道倾角 43.003° 43.002°
近地点辐角 305.166° 259.570°
升交点赤经 313.425° 337.773°
平近点角 54.886° 114.696°
近地点 480.55km 481.932km
远地点 485.302km 483.914km
周期 94.264分钟 94.264分钟
每日圈数 15.276212 15.276224
详细信息
固有亮度:
5
最大亮度:
2.5
卫星平台:
Starlink V1.0
覆盖范围:
全球
运营商:
太空探索技术公司
运营商所在国:
美国
制造商(研发单位):
太空探索技术公司
制造商所在国:
美国
使用方式:
暂无
卫星简介
Starlink 计划是 SpaceX 推出的全球卫星互联网项目,通过发射低轨道卫星,为全球尤其是偏远地区提供高速、低延迟的互联网服务。自 2019 年起,Starlink 已部署数千颗卫星,旨在缩小全球数字鸿沟,推动互联网普及。该项目还为军事、航空等行业提供通信支持,带来广泛经济效益。
2D轨道图
3D轨道图
轨道高度分析图
轨道倾角分析图
轨道综合分析图
查看轨道综合分析图
与全量物体交会距离演化趋势
与全量物体交会风险概率演化趋势